Retour au catalogue

STARLINK-4266

ActifCommunicationsVLEO
NORAD 52869·PAYLOAD·🇺🇸 United States

Lancé Jun 17, 2022 depuis Cape Canaveral Space Force Station

Loading…

Prochains Passages (prochaines 24 heures)

TLE

FraisSource: CelesTrak SupGP

Époque: Sep 15, 2026, 01:58 UTC

1 52869C 22062AR  26258.08243056 -.00030008  00000+0 -88669-3 0  2583
2 52869  53.1568 230.7521 0001201  96.3173 179.6202 15.34402398    10

Suivez STARLINK-4266 en temps réel avec AllMySat

Download on the App Store